FW2969 Weather Reports


time (UTC)temp
F
wind
direction
speed
knots
gust
knots
rain 1hr
in
rain 24hr
in
rain mn
in
humidity
%
barometer
mb
20260906194514 64 108 0.0 0.0 0.00 0.01 0.01 80 1012.7
20260906193021 64 108 0.0 0.0 0.00 0.01 0.01 85 1012.6
20260906191513 65 108 0.0 0.0 0.00 0.01 0.01 92 1012.6
20260906190013 67 108 0.0 0.0 0.00 0.01 0.01 92 1012.6
20260906184512 67 108 0.0 0.9 0.00 0.01 0.01 93 1012.8
20260906183012 68 101 0.0 4.3 0.00 0.01 0.01 93 1012.8
20260906181510 68 107 0.0 2.6 0.00 0.01 0.01 93 1012.9
20260906180013 68 88 0.0 1.7 0.00 0.01 0.01 92 1012.8
20260906174511 68 308 0.0 0.9 0.00 0.01 0.01 92 1012.8
20260906173007 69 309 0.0 0.0 0.00 0.01 0.01 91 1012.6
20260906171506 69 309 0.0 0.0 0.00 0.01 0.01 91 1012.4
20260906170005 70 309 0.0 0.9 0.00 0.01 0.01 90 1012.2
20260906164504 70 309 0.0 0.9 0.00 0.01 0.01 89 1011.9
20260906163010 71 309 0.0 0.9 0.00 0.01 0.01 88 1011.8
20260906161510 71 309 0.0 0.9 0.00 0.01 0.01 87 1011.5
20260906160009 72 308 0.0 1.7 0.00 0.01 0.01 85 1011.4
20260906154512 73 309 0.0 0.9 0.00 0.01 0.01 82 1011.3
20260906153012 74 309 0.0 0.9 0.00 0.01 0.01 81 1011.4
20260906151507 75 255 0.0 2.6 0.00 0.01 0.01 81 1011.4
20260906150013 74 213 0.9 2.6 0.00 0.01 0.01 81 1011.3
20260906144505 74 288 0.0 4.3 0.00 0.01 0.01 82 1011.4
20260906143003 74 293 0.0 3.5 0.00 0.01 0.01 84 1011.5
20260906141503 73 297 0.0 2.6 0.00 0.01 0.01 83 1011.6
20260906140002 74 310 0.9 6.1 0.00 0.01 0.01 79 1011.7
20260906134502 74 312 1.7 5.2 0.00 0.01 0.01 77 1011.5
20260906133109 75 255 0.9 2.6 0.00 0.01 0.01 77 1011.4
20260906131559 75 236 0.9 4.3 0.00 0.01 0.01 77 1011.3
20260906130059 74 190 0.0 3.5 0.00 0.01 0.01 80 1011.2
20260906124558 73 262 0.9 5.2 0.00 0.01 0.01 85 1011.4
20260906123100 73 287 3.5 10.4 0.00 0.01 0.01 85 1011.5
20260906121556 73 285 3.5 9.6 0.00 0.01 0.01 85 1011.3
20260906120059 73 331 2.6 8.7 0.00 0.01 0.01 83 1011.3
20260906114555 73 318 2.6 8.7 0.00 0.01 0.01 84 1011.3
20260906113054 74 283 3.5 12.2 0.00 0.01 0.01 83 1011.3
20260906111553 74 217 2.6 10.4 0.00 0.01 0.01 82 1011.2
20260906110055 74 326 3.5 11.3 0.00 0.01 0.01 81 1011.2
20260906104553 75 293 5.2 9.6 0.00 0.01 0.01 81 1011.1
20260906103102 75 344 4.3 9.6 0.00 0.01 0.01 81 1011.3
20260906101549 76 317 1.7 11.3 0.00 0.01 0.01 79 1011.2
20260906100048 77 267 1.7 7.0 0.00 0.01 0.01 77 1011.0
20260906094548 77 292 2.6 7.8 0.00 0.01 0.01 77 1011.1
20260906093050 77 207 2.6 7.8 0.00 0.01 0.01 76 1011.2
20260906091545 76 190 1.7 8.7 0.00 0.01 0.01 81 1011.3
20260906090058 75 319 2.6 7.8 0.00 0.01 0.01 81 1011.6
20260906084544 75 315 2.6 7.8 0.00 0.01 0.01 78 1011.7
20260906083042 76 324 3.5 7.8 0.00 0.01 0.01 69 1011.7
20260906081542 77 310 2.6 7.8 0.00 0.01 0.01 64 1011.8
20260906080038 76 357 0.0 2.6 0.00 0.01 0.01 66 1011.8
20260906074537 75 213 0.0 3.5 0.00 0.01 0.01 67 1011.8
20260906073036 74 171 0.0 3.5 0.00 0.01 0.01 71 1011.8
20260906071528 73 98 0.0 2.6 0.00 0.01 0.01 76 1011.9
20260906070034 71 196 0.0 2.6 0.00 0.01 0.01 81 1012.1
20260906064524 70 205 0.9 3.5 0.00 0.01 0.01 85 1012.0
20260906063039 70 216 0.0 1.7 0.00 0.01 0.01 86 1012.0
20260906061522 70 255 0.9 3.5 0.00 0.01 0.01 87 1012.0
20260906060022 69 324 0.0 5.2 0.00 0.01 0.01 85 1011.7
20260906054520 70 300 0.9 4.3 0.00 0.01 0.01 82 1011.6
20260906053019 71 217 0.9 3.5 0.00 0.01 0.01 76 1011.3
20260906051532 70 106 0.0 1.7 0.00 0.01 0.01 70 1011.1
20260906050013 69 106 0.0 1.7 0.00 0.01 0.01 74 1011.0
20260906044509 67 105 0.0 1.7 0.00 0.01 0.01 81 1011.0
20260906043007 65 106 0.0 0.9 0.00 0.01 0.01 85 1011.0
20260906041507 64 106 0.0 1.7 0.00 0.01 0.01 87 1011.1
20260906040016 64 106 0.0 2.6 0.00 0.01 0.01 87 1010.9
20260906034505 64 101 0.0 0.0 0.00 0.01 0.01 86 1010.9
20260906033004 64 101 0.0 0.9 0.00 0.01 0.01 85 1010.8
20260906031502 64 101 0.0 0.0 0.00 0.01 0.01 85 1010.8
20260906030002 63 101 0.0 0.9 0.00 0.01 0.01 87 1010.8
20260906024501 63 101 0.0 0.9 0.00 0.01 0.01 89 1010.6
20260906023159 62 101 0.0 0.0 0.00 0.01 0.01 91 1010.5
20260906021603 62 101 0.0 0.9 0.00 0.01 0.01 92 1010.6
20260906020105 62 101 0.0 0.9 0.01 0.01 0.01 93 1010.5
20260906014555 62 101 0.0 0.0 0.01 0.01 0.01 93 1010.5
20260906013104 63 101 0.0 0.9 0.01 0.01 0.01 93 1010.5
20260906011553 64 101 0.0 0.9 0.01 0.01 0.01 94 1010.6
20260906010053 64 101 0.0 0.9 0.00 0.00 0.00 93 1010.7
20260906004549 64 101 0.0 2.6 0.00 0.00 0.00 94 1010.7
20260906003048 64 111 0.0 2.6 0.00 0.00 0.00 93 1010.8
20260906001547 65 103 0.0 1.7 0.00 0.00 0.00 93 1011.0
20260906000052 65 70 0.0 0.0 0.00 0.00 0.00 94 1011.2
20260905234552 64 70 0.0 0.0 0.00 0.00 0.00 93 1011.2
20260905233046 64 70 0.0 0.0 0.00 0.00 0.00 94 1011.2
20260905231544 63 70 0.0 0.0 0.00 0.00 0.00 94 1011.1
20260905230044 63 70 0.0 0.0 0.00 0.00 0.00 94 1011.1
20260905224543 63 70 0.0 0.0 0.00 0.00 0.00 94 1011.0
20260905223045 63 70 0.0 0.9 0.00 0.00 0.00 94 1011.0
20260905221536 64 70 0.0 0.9 0.00 0.00 0.00 94 1011.2
20260905220033 66 70 0.0 0.0 0.00 0.00 0.00 95 1011.2
20260905214531 67 70 0.0 0.9 0.00 0.00 0.00 95 1011.4
20260905213027 66 70 0.0 0.9 0.00 0.00 0.00 95 1011.7
20260905211526 66 70 0.0 0.9 0.00 0.00 0.00 94 1011.8
20260905210038 66 70 0.0 0.0 0.00 0.00 0.00 94 1011.9
20260905204530 66 70 0.0 0.9 0.00 0.00 0.00 94 1011.7
20260905203023 66 70 0.0 0.0 0.00 0.00 0.00 93 1011.7
20260905201520 66 70 0.0 0.0 0.00 0.00 0.00 93 1011.7
20260905200024 66 70 0.0 0.0 0.00 0.00 0.00 93 1011.5